• In Uzbekistan
  • List of Countries
  • For 7 days
  • Water Temperature
  • Satellite Maps
  • Weather Map
  • Weather Widgets
  • user-avatar
    Login

    Hourly Weather Ålesund

    Today, 27 May, Monday

    Time Temperature Precipitation Wind Pressure Humidity
    00:00 +5°C° 0 mm 2 mps 746 mmHg 93%
    01:00 +5°C° 0 mm 2 mps 746 mmHg 92%
    02:00 +5°C° 0 mm 2 mps 746 mmHg 91%
    03:00 +5°C° 0 mm 2 mps 745 mmHg 90%
    04:00 +5°C° 0.1 mm 2 mps 745 mmHg 87%
    05:00 +6°C° 0.1 mm 2 mps 745 mmHg 83%
    06:00 +6°C° 0.1 mm 2 mps 745 mmHg 80%
    07:00 +5°C° 0.1 mm 3 mps 745 mmHg 77%
    08:00 +5°C° 0.1 mm 3 mps 745 mmHg 74%
    09:00 +7°C° 0.1 mm 3 mps 745 mmHg 72%
    10:00 +7°C° 0.1 mm 3 mps 745 mmHg 71%
    11:00 +7°C° 0.1 mm 3 mps 745 mmHg 71%
    12:00 +7°C° 0.1 mm 3 mps 745 mmHg 71%
    13:00 +5°C° 0.1 mm 3 mps 746 mmHg 72%
    14:00 +5°C° 0.1 mm 3 mps 746 mmHg 72%
    15:00 +5°C° 0.1 mm 3 mps 746 mmHg 73%
    16:00 +4°C° 0.1 mm 3 mps 746 mmHg 74%
    17:00 +4°C° 0.1 mm 3 mps 746 mmHg 74%
    18:00 +4°C° 0.1 mm 3 mps 746 mmHg 74%
    19:00 +5°C° 0.1 mm 2 mps 747 mmHg 76%
    20:00 +4°C° 0.1 mm 2 mps 747 mmHg 78%
    21:00 +4°C° 0.1 mm 2 mps 747 mmHg 79%
    22:00 +4°C° 0.1 mm 2 mps 747 mmHg 79%
    23:00 +3°C° 0.1 mm 2 mps 747 mmHg 79%

    Tomorrow, 28 May, Tuesday

    Time Temperature Precipitation Wind Pressure Humidity
    00:00 +3°C° 0.1 mm 2 mps 748 mmHg 79%
    01:00 +3°C° 0.2 mm 2 mps 748 mmHg 78%
    02:00 +3°C° 0.2 mm 2 mps 748 mmHg 77%
    03:00 +2°C° 0.2 mm 3 mps 748 mmHg 76%
    04:00 +2°C° 0 mm 3 mps 748 mmHg 71%
    05:00 +3°C° 0 mm 4 mps 748 mmHg 67%
    06:00 +3°C° 0 mm 4 mps 748 mmHg 62%
    07:00 +4°C° 0.1 mm 4 mps 748 mmHg 60%
    08:00 +3°C° 0.1 mm 5 mps 748 mmHg 57%
    09:00 +5°C° 0.1 mm 5 mps 749 mmHg 55%
    10:00 +5°C° 0.2 mm 5 mps 749 mmHg 56%
    11:00 +5°C° 0.2 mm 5 mps 749 mmHg 57%
    12:00 +6°C° 0.2 mm 5 mps 750 mmHg 58%
    13:00 +5°C° 0.3 mm 5 mps 750 mmHg 60%
    14:00 +5°C° 0.3 mm 5 mps 750 mmHg 63%
    15:00 +5°C° 0.3 mm 5 mps 751 mmHg 66%
    16:00 +5°C° 0.1 mm 5 mps 751 mmHg 67%
    17:00 +3°C° 0.1 mm 5 mps 751 mmHg 68%
    18:00 +3°C° 0.1 mm 5 mps 751 mmHg 68%
    19:00 +2°C° 0.1 mm 5 mps 751 mmHg 71%
    20:00 +3°C° 0.1 mm 4 mps 751 mmHg 73%
    21:00 +1°C° 0.1 mm 4 mps 751 mmHg 76%
    22:00 +1°C° 0 mm 5 mps 751 mmHg 77%
    23:00 +1°C° 0 mm 5 mps 751 mmHg 77%

    Day after tomorrow, 29 May, Wednesday

    Time Temperature Precipitation Wind Pressure Humidity
    00:00 +1°C° 0 mm 5 mps 751 mmHg 78%
    01:00 +1°C° 0.1 mm 5 mps 751 mmHg 78%
    02:00 +1°C° 0.1 mm 5 mps 751 mmHg 77%
    03:00 +1°C° 0.1 mm 6 mps 751 mmHg 77%
    04:00 +1°C° 0.5 mm 5 mps 751 mmHg 79%
    05:00 +1°C° 0.5 mm 5 mps 751 mmHg 81%
    06:00 +2°C° 0.5 mm 5 mps 751 mmHg 83%
    07:00 +2°C° 0.6 mm 5 mps 751 mmHg 82%
    08:00 +3°C° 0.6 mm 5 mps 752 mmHg 81%
    09:00 +3°C° 0.6 mm 5 mps 752 mmHg 80%
    10:00 +5°C° 0.2 mm 5 mps 752 mmHg 76%
    11:00 +5°C° 0.2 mm 6 mps 752 mmHg 72%
    12:00 +7°C° 0.2 mm 6 mps 753 mmHg 68%
    13:00 +5°C° 0.4 mm 6 mps 752 mmHg 70%
    14:00 +5°C° 0.4 mm 6 mps 752 mmHg 73%
    15:00 +5°C° 0.4 mm 7 mps 752 mmHg 75%
    16:00 +4°C° 0.7 mm 6 mps 752 mmHg 78%
    17:00 +4°C° 0.7 mm 6 mps 752 mmHg 81%
    18:00 +4°C° 0.7 mm 6 mps 752 mmHg 84%
    19:00 +3°C° 0.6 mm 5 mps 752 mmHg 85%
    20:00 +3°C° 0.6 mm 5 mps 752 mmHg 86%
    21:00 +3°C° 0.6 mm 5 mps 752 mmHg 87%
    22:00 +3°C° 0.7 mm 5 mps 752 mmHg 88%
    23:00 +4°C° 0.7 mm 4 mps 752 mmHg 88%

    30 May, Thursday

    Time Temperature Precipitation Wind Pressure Humidity
    00:00 +4°C° 0.7 mm 4 mps 752 mmHg 89%
    01:00 +3°C° 0.8 mm 4 mps 752 mmHg 89%
    02:00 +3°C° 0.8 mm 4 mps 752 mmHg 89%
    03:00 +3°C° 0.8 mm 4 mps 752 mmHg 90%
    04:00 +3°C° 0.4 mm 4 mps 752 mmHg 89%
    05:00 +4°C° 0.4 mm 4 mps 752 mmHg 89%
    06:00 +4°C° 0.4 mm 4 mps 751 mmHg 89%
    07:00 +4°C° 0.3 mm 4 mps 751 mmHg 87%
    08:00 +5°C° 0.3 mm 4 mps 752 mmHg 86%
    09:00 +5°C° 0.3 mm 5 mps 752 mmHg 84%
    10:00 +6°C° 0.2 mm 5 mps 752 mmHg 79%
    11:00 +6°C° 0.2 mm 4 mps 752 mmHg 74%
    12:00 +6°C° 0.2 mm 4 mps 752 mmHg 70%
    13:00 +6°C° 0.2 mm 5 mps 752 mmHg 69%
    14:00 +6°C° 0.2 mm 5 mps 752 mmHg 68%
    15:00 +7°C° 0.2 mm 5 mps 752 mmHg 67%
    16:00 +6°C° 0.1 mm 5 mps 753 mmHg 70%
    17:00 +6°C° 0.1 mm 5 mps 753 mmHg 73%
    18:00 +5°C° 0.1 mm 5 mps 754 mmHg 76%
    19:00 +5°C° 0.3 mm 5 mps 754 mmHg 79%
    20:00 +4°C° 0.3 mm 4 mps 755 mmHg 83%
    21:00 +4°C° 0.3 mm 4 mps 755 mmHg 86%
    22:00 +3°C° 0.8 mm 5 mps 756 mmHg 88%
    23:00 +3°C° 0.8 mm 5 mps 756 mmHg 89%

    31 May, Friday

    Time Temperature Precipitation Wind Pressure Humidity
    00:00 +3°C° 0.8 mm 5 mps 757 mmHg 91%
    01:00 +3°C° 0.3 mm 5 mps 757 mmHg 90%
    02:00 +2°C° 0.3 mm 5 mps 757 mmHg 90%
    03:00 +2°C° 0.3 mm 5 mps 758 mmHg 90%
    04:00 +3°C° 0.2 mm 5 mps 758 mmHg 90%
    05:00 +3°C° 0.2 mm 5 mps 758 mmHg 89%
    06:00 +3°C° 0.2 mm 6 mps 759 mmHg 89%
    07:00 +3°C° 0.1 mm 6 mps 759 mmHg 88%
    08:00 +3°C° 0.1 mm 6 mps 759 mmHg 87%
    09:00 +3°C° 0.1 mm 6 mps 760 mmHg 86%
    10:00 +4°C° 0.1 mm 7 mps 760 mmHg 84%
    11:00 +4°C° 0.1 mm 7 mps 761 mmHg 83%
    12:00 +4°C° 0.1 mm 7 mps 761 mmHg 81%
    13:00 +4°C° 0.1 mm 7 mps 761 mmHg 80%
    14:00 +4°C° 0.1 mm 7 mps 761 mmHg 80%
    15:00 +4°C° 0.1 mm 7 mps 762 mmHg 79%
    16:00 +4°C° 0.1 mm 6 mps 762 mmHg 80%
    17:00 +4°C° 0.1 mm 6 mps 762 mmHg 81%
    18:00 +4°C° 0.1 mm 6 mps 762 mmHg 82%
    19:00 +4°C° 0.1 mm 6 mps 762 mmHg 83%
    20:00 +3°C° 0.1 mm 5 mps 762 mmHg 85%
    21:00 +3°C° 0.1 mm 5 mps 762 mmHg 86%
    22:00 +3°C° 0.1 mm 5 mps 762 mmHg 87%
    23:00 +3°C° 0.1 mm 5 mps 762 mmHg 87%

    1 June, Saturday

    Time Temperature Precipitation Wind Pressure Humidity
    00:00 +4°C° 0.1 mm 4 mps 762 mmHg 88%
    01:00 +3°C° 0.2 mm 4 mps 762 mmHg 88%
    02:00 +3°C° 0.2 mm 4 mps 762 mmHg 89%
    03:00 +3°C° 0.2 mm 3 mps 762 mmHg 89%
    04:00 +4°C° 0.1 mm 3 mps 762 mmHg 88%
    05:00 +4°C° 0.1 mm 3 mps 761 mmHg 86%
    06:00 +5°C° 0.1 mm 2 mps 761 mmHg 84%
    07:00 +6°C° 0.1 mm 2 mps 761 mmHg 83%
    08:00 +6°C° 0.1 mm 2 mps 761 mmHg 81%
    09:00 +6°C° 0.1 mm 2 mps 761 mmHg 79%
    10:00 +6°C° 0 mm 2 mps 761 mmHg 79%
    11:00 +7°C° 0 mm 2 mps 761 mmHg 79%
    12:00 +7°C° 0 mm 2 mps 761 mmHg 80%
    13:00 +7°C° 0 mm 2 mps 760 mmHg 79%
    14:00 +7°C° 0 mm 2 mps 760 mmHg 79%
    15:00 +7°C° 0 mm 2 mps 760 mmHg 78%
    16:00 +7°C° 0 mm 2 mps 760 mmHg 78%
    17:00 +7°C° 0 mm 2 mps 759 mmHg 79%
    18:00 +7°C° 0 mm 2 mps 759 mmHg 79%
    19:00 +6°C° 0 mm 2 mps 759 mmHg 82%
    20:00 +5°C° 0 mm 2 mps 760 mmHg 84%
    21:00 +4°C° 0 mm 2 mps 760 mmHg 87%
    22:00 +3°C° 0 mm 2 mps 760 mmHg 88%
    23:00 +3°C° 0 mm 2 mps 760 mmHg 89%
    Show more